Time,TemperatureF,DewpointF,PressureIn,WindDirection,WindDirectionDegrees,WindSpeedMPH,WindSpeedGustMPH,Humidity,HourlyPrecipIn,Conditions,Clouds,dailyrainin,SoftwareType,DateUTC
2013-10-26 00:04:00,50.0,-99.9,-100.00,WSW,240,29.0,34.0,-999,-99.99,,,-99.99,,2013-10-26 05:04:00,
2013-10-26 00:23:00,50.0,-99.9,-100.00,SW,230,30.0,40.0,-999,-99.99,,,-99.99,,2013-10-26 05:23:00,
2013-10-26 00:34:00,50.0,-99.9,-100.00,SW,230,30.0,40.0,-999,-99.99,,,-99.99,,2013-10-26 05:34:00,
2013-10-26 00:52:00,50.0,-99.9,-100.00,SW,230,29.0,36.0,-999,-99.99,,,-99.99,,2013-10-26 05:52:00,
2013-10-26 01:02:00,50.0,-99.9,-100.00,SW,230,29.0,36.0,-999,-99.99,,,-99.99,,2013-10-26 06:02:00,
2013-10-26 01:22:00,50.0,-99.9,-100.00,West,260,30.0,38.0,-999,-99.99,,,-99.99,,2013-10-26 06:22:00,
2013-10-26 01:32:00,50.0,-99.9,-100.00,West,260,30.0,38.0,-999,-99.99,,,-99.99,,2013-10-26 06:32:00,
2013-10-26 01:52:00,51.0,-99.9,-100.00,WSW,240,25.0,32.0,-999,-99.99,,,-99.99,,2013-10-26 06:52:00,
2013-10-26 02:02:00,51.0,-99.9,-100.00,WSW,240,25.0,32.0,-999,-99.99,,,-99.99,,2013-10-26 07:02:00,
2013-10-26 02:22:00,51.0,-99.9,-100.00,West,260,25.0,31.0,-999,-99.99,,,-99.99,,2013-10-26 07:22:00,
2013-10-26 02:32:00,51.0,-99.9,-100.00,West,260,25.0,31.0,-999,-99.99,,,-99.99,,2013-10-26 07:32:00,
2013-10-26 02:52:00,51.0,-99.9,-100.00,West,260,23.0,28.0,-999,-99.99,,,-99.99,,2013-10-26 07:52:00,
2013-10-26 03:02:00,51.0,-99.9,-100.00,West,260,23.0,28.0,-999,-99.99,,,-99.99,,2013-10-26 08:02:00,
2013-10-26 03:22:00,52.0,-99.9,-100.00,West,270,25.0,30.0,-999,-99.99,,,-99.99,,2013-10-26 08:22:00,
2013-10-26 03:32:00,52.0,-99.9,-100.00,West,270,25.0,30.0,-999,-99.99,,,-99.99,,2013-10-26 08:32:00,
2013-10-26 03:52:00,51.0,-99.9,-100.00,West,260,25.0,29.0,-999,-99.99,,,-99.99,,2013-10-26 08:52:00,
2013-10-26 04:02:00,51.0,-99.9,-100.00,West,260,25.0,29.0,-999,-99.99,,,-99.99,,2013-10-26 09:02:00,
2013-10-26 04:11:00,51.0,-99.9,-100.00,West,260,25.0,29.0,-999,-99.99,,,-99.99,,2013-10-26 09:11:00,
2013-10-26 04:22:00,51.0,-99.9,-100.00,West,260,25.0,29.0,-999,-99.99,,,-99.99,,2013-10-26 09:22:00,
2013-10-26 04:54:00,51.0,-99.9,-100.00,NW,310,20.0,22.0,-999,-99.99,,,-99.99,,2013-10-26 09:54:00,
2013-10-26 05:03:00,51.0,-99.9,-100.00,NW,310,20.0,22.0,-999,-99.99,,,-99.99,,2013-10-26 10:03:00,
2013-10-26 05:23:00,51.0,-99.9,-100.00,NW,310,23.0,29.0,-999,-99.99,,,-99.99,,2013-10-26 10:23:00,
2013-10-26 05:33:00,51.0,-99.9,-100.00,NW,310,23.0,29.0,-999,-99.99,,,-99.99,,2013-10-26 10:33:00,
2013-10-26 05:53:00,50.0,-99.9,-100.00,NNW,340,20.0,21.0,-999,-99.99,,,-99.99,,2013-10-26 10:53:00,
2013-10-26 06:03:00,50.0,-99.9,-100.00,NNW,340,20.0,21.0,-999,-99.99,,,-99.99,,2013-10-26 11:03:00,
2013-10-26 06:12:00,50.0,-99.9,-100.00,NNW,340,20.0,21.0,-999,-99.99,,,-99.99,,2013-10-26 11:12:00,
2013-10-26 06:22:00,50.0,-99.9,-100.00,NNW,340,20.0,21.0,-999,-99.99,,,-99.99,,2013-10-26 11:22:00,
2013-10-26 06:52:00,49.0,-99.9,-100.00,NW,310,28.0,32.0,-999,-99.99,,,-99.99,,2013-10-26 11:52:00,
2013-10-26 07:01:00,49.0,-99.9,-100.00,NW,310,28.0,32.0,-999,-99.99,,,-99.99,,2013-10-26 12:01:00,
2013-10-26 07:22:00,49.0,-99.9,-100.00,NNW,330,29.0,34.0,-999,-99.99,,,-99.99,,2013-10-26 12:22:00,
2013-10-26 07:32:00,49.0,-99.9,-100.00,NNW,330,29.0,34.0,-999,-99.99,,,-99.99,,2013-10-26 12:32:00,
2013-10-26 07:52:00,47.0,-99.9,-100.00,NNW,330,30.0,37.0,-999,-99.99,,,-99.99,,2013-10-26 12:52:00,
2013-10-26 08:01:00,47.0,-99.9,-100.00,NNW,330,30.0,37.0,-999,-99.99,,,-99.99,,2013-10-26 13:01:00,
2013-10-26 08:22:00,47.0,-99.9,-100.00,NNW,340,34.0,41.0,-999,-99.99,,,-99.99,,2013-10-26 13:22:00,
2013-10-26 08:32:00,47.0,-99.9,-100.00,NNW,340,34.0,41.0,-999,-99.99,,,-99.99,,2013-10-26 13:32:00,
2013-10-26 08:52:00,46.0,-99.9,-100.00,NNW,340,28.0,33.0,-999,-99.99,,,-99.99,,2013-10-26 13:52:00,
2013-10-26 09:02:00,46.0,-99.9,-100.00,NNW,340,28.0,33.0,-999,-99.99,,,-99.99,,2013-10-26 14:02:00,
2013-10-26 09:22:00,46.0,-99.9,-100.00,NNW,340,31.0,40.0,-999,-99.99,,,-99.99,,2013-10-26 14:22:00,
2013-10-26 09:32:00,46.0,-99.9,-100.00,NNW,340,31.0,40.0,-999,-99.99,,,-99.99,,2013-10-26 14:32:00,
2013-10-26 09:52:00,45.0,-99.9,-100.00,North,10,30.0,37.0,-999,-99.99,,,-99.99,,2013-10-26 14:52:00,
2013-10-26 10:02:00,45.0,-99.9,-100.00,North,10,30.0,37.0,-999,-99.99,,,-99.99,,2013-10-26 15:02:00,
2013-10-26 10:23:00,47.0,-99.9,-100.00,NNW,330,30.0,37.0,-999,-99.99,,,-99.99,,2013-10-26 15:23:00,
2013-10-26 10:34:00,47.0,-99.9,-100.00,NNW,330,30.0,37.0,-999,-99.99,,,-99.99,,2013-10-26 15:34:00,
2013-10-26 10:55:00,47.0,-99.9,-100.00,North,350,33.0,45.0,-999,-99.99,,,-99.99,,2013-10-26 15:55:00,
2013-10-26 11:05:00,47.0,-99.9,-100.00,North,350,33.0,45.0,-999,-99.99,,,-99.99,,2013-10-26 16:05:00,
2013-10-26 11:24:00,48.0,-99.9,-100.00,NNW,340,28.0,32.0,-999,-99.99,,,-99.99,,2013-10-26 16:24:00,
2013-10-26 11:34:00,48.0,-99.9,-100.00,NNW,340,28.0,32.0,-999,-99.99,,,-99.99,,2013-10-26 16:34:00,
2013-10-26 11:54:00,45.0,-99.9,-100.00,North,350,28.0,33.0,-999,-99.99,,,-99.99,,2013-10-26 16:54:00,
2013-10-26 12:03:00,45.0,-99.9,-100.00,North,350,28.0,33.0,-999,-99.99,,,-99.99,,2013-10-26 17:03:00,
2013-10-26 12:52:00,47.0,-99.9,-100.00,NNW,330,31.0,37.0,-999,-99.99,,,-99.99,,2013-10-26 17:52:00,
2013-10-26 13:02:00,47.0,-99.9,-100.00,NNW,330,31.0,37.0,-999,-99.99,,,-99.99,,2013-10-26 18:02:00,
2013-10-26 13:22:00,47.0,-99.9,-100.00,NW,310,30.0,38.0,-999,-99.99,,,-99.99,,2013-10-26 18:22:00,
2013-10-26 13:32:00,47.0,-99.9,-100.00,NW,310,30.0,38.0,-999,-99.99,,,-99.99,,2013-10-26 18:32:00,
2013-10-26 13:52:00,47.0,-99.9,-100.00,NW,320,26.0,38.0,-999,-99.99,,,-99.99,,2013-10-26 18:52:00,
2013-10-26 14:02:00,47.0,-99.9,-100.00,NW,320,26.0,38.0,-999,-99.99,,,-99.99,,2013-10-26 19:02:00,
2013-10-26 14:12:00,47.0,-99.9,-100.00,NW,320,26.0,38.0,-999,-99.99,,,-99.99,,2013-10-26 19:12:00,
2013-10-26 14:22:00,47.0,-99.9,-100.00,NW,320,26.0,38.0,-999,-99.99,,,-99.99,,2013-10-26 19:22:00,
2013-10-26 14:52:00,50.0,-99.9,-100.00,North,360,30.0,34.0,-999,-99.99,,,-99.99,,2013-10-26 19:52:00,
2013-10-26 15:02:00,50.0,-99.9,-100.00,North,360,30.0,34.0,-999,-99.99,,,-99.99,,2013-10-26 20:02:00,
2013-10-26 15:52:00,45.0,-99.9,-100.00,North,10,32.0,37.0,-999,-99.99,,,-99.99,,2013-10-26 20:52:00,
2013-10-26 16:02:00,45.0,-99.9,-100.00,North,10,32.0,37.0,-999,-99.99,,,-99.99,,2013-10-26 21:02:00,
2013-10-26 16:11:00,45.0,-99.9,-100.00,North,10,32.0,37.0,-999,-99.99,,,-99.99,,2013-10-26 21:11:00,
2013-10-26 16:22:00,45.0,-99.9,-100.00,North,10,32.0,37.0,-999,-99.99,,,-99.99,,2013-10-26 21:22:00,
2013-10-26 16:55:00,44.0,-99.9,-100.00,NNW,330,33.0,39.0,-999,-99.99,,,-99.99,,2013-10-26 21:55:00,
2013-10-26 17:03:00,44.0,-99.9,-100.00,NNW,330,33.0,39.0,-999,-99.99,,,-99.99,,2013-10-26 22:03:00,
2013-10-26 17:24:00,44.0,-99.9,-100.00,North,350,31.0,38.0,-999,-99.99,,,-99.99,,2013-10-26 22:24:00,
2013-10-26 17:33:00,44.0,-99.9,-100.00,North,350,31.0,38.0,-999,-99.99,,,-99.99,,2013-10-26 22:33:00,
2013-10-26 17:54:00,44.0,-99.9,-100.00,NNW,340,25.0,30.0,-999,-99.99,,,-99.99,,2013-10-26 22:54:00,
2013-10-26 18:03:00,44.0,-99.9,-100.00,NNW,340,25.0,30.0,-999,-99.99,,,-99.99,,2013-10-26 23:03:00,
2013-10-26 18:22:00,44.0,-99.9,-100.00,North,350,32.0,40.0,-999,-99.99,,,-99.99,,2013-10-26 23:22:00,
2013-10-26 18:34:00,44.0,-99.9,-100.00,North,350,32.0,40.0,-999,-99.99,,,-99.99,,2013-10-26 23:34:00,
2013-10-26 18:52:00,43.0,-99.9,-100.00,NNW,340,29.0,34.0,-999,-99.99,,,-99.99,,2013-10-26 23:52:00,
2013-10-26 19:02:00,43.0,-99.9,-100.00,NNW,340,29.0,34.0,-999,-99.99,,,-99.99,,2013-10-27 00:02:00,
2013-10-26 19:22:00,42.0,-99.9,-100.00,NW,320,26.0,31.0,-999,-99.99,,,-99.99,,2013-10-27 00:22:00,
2013-10-26 19:23:00,42.0,-99.9,-100.00,North,350,28.0,34.0,-999,-99.99,,,-99.99,,2013-10-27 00:23:00,
2013-10-26 19:32:00,42.0,-99.9,-100.00,NW,320,26.0,31.0,-999,-99.99,,,-99.99,,2013-10-27 00:32:00,
2013-10-26 19:52:00,42.0,-99.9,-100.00,North,350,28.0,34.0,-999,-99.99,,,-99.99,,2013-10-27 00:52:00,
2013-10-26 20:02:00,42.0,-99.9,-100.00,North,350,28.0,34.0,-999,-99.99,,,-99.99,,2013-10-27 01:02:00,
2013-10-26 20:12:00,42.0,-99.9,-100.00,North,350,28.0,34.0,-999,-99.99,,,-99.99,,2013-10-27 01:12:00,
2013-10-26 20:52:00,43.0,-99.9,-100.00,NNW,330,23.0,28.0,-999,-99.99,,,-99.99,,2013-10-27 01:52:00,
2013-10-26 21:02:00,43.0,-99.9,-100.00,NNW,330,23.0,28.0,-999,-99.99,,,-99.99,,2013-10-27 02:02:00,
2013-10-26 21:22:00,42.0,-99.9,-100.00,NNW,340,24.0,29.0,-999,-99.99,,,-99.99,,2013-10-27 02:22:00,
2013-10-26 21:32:00,42.0,-99.9,-100.00,NNW,340,24.0,29.0,-999,-99.99,,,-99.99,,2013-10-27 02:32:00,
2013-10-26 21:52:00,42.0,-99.9,-100.00,NW,320,22.0,24.0,-999,-99.99,,,-99.99,,2013-10-27 02:52:00,
2013-10-26 22:02:00,42.0,-99.9,-100.00,NW,320,22.0,24.0,-999,-99.99,,,-99.99,,2013-10-27 03:02:00,
2013-10-26 22:22:00,42.0,-99.9,-100.00,NW,320,22.0,26.0,-999,-99.99,,,-99.99,,2013-10-27 03:22:00,
2013-10-26 22:34:00,42.0,-99.9,-100.00,NW,320,22.0,26.0,-999,-99.99,,,-99.99,,2013-10-27 03:34:00,
2013-10-26 22:55:00,42.0,-99.9,-100.00,North,360,23.0,28.0,-999,-99.99,,,-99.99,,2013-10-27 03:55:00,
2013-10-26 23:03:00,-999.0,-99.9,-100.00,North,360,23.0,28.0,-999,-99.99,,,-99.99,,2013-10-27 04:03:00,
2013-10-26 23:24:00,42.0,-99.9,-100.00,NNW,340,21.0,24.0,-999,-99.99,,,-99.99,,2013-10-27 04:24:00,
2013-10-26 23:34:00,42.0,-99.9,-100.00,NNW,340,21.0,24.0,-999,-99.99,,,-99.99,,2013-10-27 04:34:00,
2013-10-26 23:54:00,42.0,-99.9,-100.00,NW,320,21.0,24.0,-999,-99.99,,,-99.99,,2013-10-27 04:54:00,